Time,TemperatureF,DewpointF,PressureIn,WindDirection,WindDirectionDegrees,WindSpeedMPH,WindSpeedGustMPH,Humidity,HourlyPrecipIn,Conditions,Clouds,dailyrainin,SolarRadiationWatts/m^2,SoftwareType,DateUTC
2013-01-28 00:01:00,29.0,28.0,-100.00,South,190,5.0,9.0,95,0.00,,,0.01,0.000000,,2013-01-28 08:01:00,
2013-01-28 00:11:00,29.0,28.0,-100.00,South,190,5.0,9.0,95,0.00,,,0.01,0.000000,,2013-01-28 08:11:00,
2013-01-28 00:21:00,29.0,28.0,-100.00,South,190,5.0,9.0,95,0.00,,,0.01,0.000000,,2013-01-28 08:21:00,
2013-01-28 00:31:00,28.0,27.0,-100.00,South,182,6.0,9.0,95,0.00,,,0.01,0.000000,,2013-01-28 08:31:00,
2013-01-28 00:52:00,28.0,27.0,-100.00,South,182,6.0,9.0,95,0.00,,,0.01,0.000000,,2013-01-28 08:52:00,
2013-01-28 01:02:00,28.0,27.0,-100.00,South,182,6.0,9.0,95,0.00,,,0.01,0.000000,,2013-01-28 09:02:00,
2013-01-28 01:11:00,28.0,27.0,-100.00,South,182,6.0,9.0,95,0.00,,,0.01,0.000000,,2013-01-28 09:11:00,
2013-01-28 01:21:00,28.0,27.0,-100.00,South,182,6.0,9.0,95,0.00,,,0.01,0.000000,,2013-01-28 09:21:00,
2013-01-28 01:31:00,28.0,26.0,-100.00,South,188,4.0,9.0,93,0.00,,,0.01,0.000000,,2013-01-28 09:31:00,
2013-01-28 01:52:00,28.0,26.0,-100.00,South,188,4.0,9.0,93,0.00,,,0.01,0.000000,,2013-01-28 09:52:00,
2013-01-28 02:01:00,28.0,26.0,-100.00,South,188,4.0,9.0,93,0.00,,,0.01,0.000000,,2013-01-28 10:01:00,
2013-01-28 02:11:00,28.0,26.0,-100.00,South,188,4.0,9.0,93,0.00,,,0.01,0.000000,,2013-01-28 10:11:00,
2013-01-28 02:21:00,28.0,26.0,-100.00,South,188,4.0,9.0,93,0.00,,,0.01,0.000000,,2013-01-28 10:21:00,
2013-01-28 02:31:00,29.0,27.0,-100.00,SSW,203,4.0,7.0,91,0.00,,,0.01,0.000000,,2013-01-28 10:31:00,
2013-01-28 02:52:00,29.0,27.0,-100.00,SSW,203,4.0,7.0,91,0.00,,,0.01,0.000000,,2013-01-28 10:52:00,
2013-01-28 03:02:00,29.0,27.0,-100.00,SSW,203,4.0,7.0,91,0.00,,,0.01,0.000000,,2013-01-28 11:02:00,
2013-01-28 03:11:00,29.0,27.0,-100.00,SSW,203,4.0,7.0,91,0.00,,,0.01,0.000000,,2013-01-28 11:11:00,
2013-01-28 03:21:00,29.0,27.0,-100.00,SSW,203,4.0,7.0,91,0.00,,,0.01,0.000000,,2013-01-28 11:21:00,
2013-01-28 03:31:00,29.0,27.0,-100.00,SSW,197,5.0,10.0,91,0.00,,,-99.99,0.000000,,2013-01-28 11:31:00,
2013-01-28 03:52:00,29.0,27.0,-100.00,SSW,197,5.0,10.0,91,0.00,,,-99.99,0.000000,,2013-01-28 11:52:00,
2013-01-28 04:03:00,29.0,27.0,-100.00,SSW,197,5.0,10.0,91,0.00,,,-99.99,0.000000,,2013-01-28 12:03:00,
2013-01-28 04:11:00,29.0,27.0,-100.00,SSW,197,5.0,10.0,91,0.00,,,-99.99,0.000000,,2013-01-28 12:11:00,
2013-01-28 04:22:00,29.0,27.0,-100.00,SSW,197,5.0,10.0,91,0.00,,,-99.99,0.000000,,2013-01-28 12:22:00,
2013-01-28 04:31:00,29.0,27.0,-100.00,SSW,198,5.0,9.0,92,0.00,,,0.01,0.000000,,2013-01-28 12:31:00,
2013-01-28 04:52:00,29.0,27.0,-100.00,SSW,198,5.0,9.0,92,0.00,,,0.01,0.000000,,2013-01-28 12:52:00,
2013-01-28 05:02:00,29.0,27.0,-100.00,SSW,198,5.0,9.0,92,0.00,,,0.01,0.000000,,2013-01-28 13:02:00,
2013-01-28 05:11:00,29.0,27.0,-100.00,SSW,198,5.0,9.0,92,0.00,,,0.01,0.000000,,2013-01-28 13:11:00,
2013-01-28 05:22:00,29.0,27.0,-100.00,SSW,198,5.0,9.0,92,0.00,,,0.01,0.000000,,2013-01-28 13:22:00,
2013-01-28 05:31:00,29.0,26.0,-100.00,South,182,5.0,7.0,89,0.00,,,0.01,0.000000,,2013-01-28 13:31:00,
2013-01-28 05:53:00,29.0,26.0,-100.00,South,182,5.0,7.0,89,0.00,,,0.01,0.000000,,2013-01-28 13:53:00,
2013-01-28 06:02:00,29.0,26.0,-100.00,South,182,5.0,7.0,89,0.00,,,0.01,0.000000,,2013-01-28 14:02:00,
2013-01-28 06:12:00,29.0,26.0,-100.00,South,182,5.0,7.0,89,0.00,,,0.01,0.000000,,2013-01-28 14:12:00,
2013-01-28 06:22:00,29.0,26.0,-100.00,South,182,5.0,7.0,89,0.00,,,0.01,0.000000,,2013-01-28 14:22:00,
2013-01-28 06:31:00,29.0,26.0,-100.00,SSW,193,5.0,8.0,88,0.00,,,0.01,0.000000,,2013-01-28 14:31:00,
2013-01-28 06:53:00,29.0,26.0,-100.00,SSW,193,5.0,8.0,88,0.00,,,0.01,0.000000,,2013-01-28 14:53:00,
2013-01-28 07:03:00,29.0,26.0,-100.00,SSW,193,5.0,8.0,88,0.00,,,0.01,0.000000,,2013-01-28 15:03:00,
2013-01-28 07:12:00,29.0,26.0,-100.00,SSW,193,5.0,8.0,88,0.00,,,0.01,0.000000,,2013-01-28 15:12:00,
2013-01-28 07:23:00,29.0,26.0,-100.00,SSW,193,5.0,8.0,88,0.00,,,0.01,0.000000,,2013-01-28 15:23:00,
2013-01-28 07:31:00,29.0,27.0,-100.00,SSW,198,5.0,11.0,91,0.00,,,0.01,0.000000,,2013-01-28 15:31:00,
2013-01-28 07:53:00,29.0,27.0,-100.00,SSW,198,5.0,11.0,91,0.00,,,0.01,0.000000,,2013-01-28 15:53:00,
2013-01-28 08:03:00,29.0,27.0,-100.00,SSW,198,5.0,11.0,91,0.00,,,0.01,0.000000,,2013-01-28 16:03:00,
2013-01-28 08:12:00,29.0,27.0,-100.00,SSW,198,5.0,11.0,91,0.00,,,0.01,0.000000,,2013-01-28 16:12:00,
2013-01-28 08:22:00,29.0,27.0,-100.00,SSW,198,5.0,11.0,91,0.00,,,0.01,0.000000,,2013-01-28 16:22:00,
2013-01-28 08:31:00,29.0,27.0,-100.00,South,190,4.0,9.0,93,0.00,,,-99.99,3.000000,,2013-01-28 16:31:00,
2013-01-28 08:53:00,29.0,27.0,-100.00,South,190,4.0,9.0,93,0.00,,,-99.99,3.000000,,2013-01-28 16:53:00,
2013-01-28 09:01:00,29.0,27.0,-100.00,South,190,4.0,9.0,93,0.00,,,-99.99,3.000000,,2013-01-28 17:01:00,
2013-01-28 09:11:00,29.0,27.0,-100.00,South,190,4.0,9.0,93,0.00,,,-99.99,3.000000,,2013-01-28 17:11:00,
2013-01-28 09:22:00,29.0,27.0,-100.00,South,190,4.0,9.0,93,0.00,,,-99.99,3.000000,,2013-01-28 17:22:00,
2013-01-28 09:31:00,31.0,28.0,-100.00,South,186,5.0,9.0,90,0.00,,,0.00,13.000000,,2013-01-28 17:31:00,
2013-01-28 09:52:00,31.0,28.0,-100.00,South,186,5.0,9.0,90,0.00,,,0.00,13.000000,,2013-01-28 17:52:00,
2013-01-28 10:02:00,31.0,28.0,-100.00,South,186,5.0,9.0,90,0.00,,,0.00,13.000000,,2013-01-28 18:02:00,
2013-01-28 10:12:00,31.0,28.0,-100.00,South,186,5.0,9.0,90,0.00,,,0.00,13.000000,,2013-01-28 18:12:00,
2013-01-28 10:23:00,31.0,28.0,-100.00,South,186,5.0,9.0,90,0.00,,,0.00,13.000000,,2013-01-28 18:23:00,
2013-01-28 10:31:00,32.0,28.0,-100.00,SSW,197,4.0,9.0,86,0.00,,,0.00,21.000000,,2013-01-28 18:31:00,
2013-01-28 10:52:00,32.0,28.0,-100.00,SSW,197,4.0,9.0,86,0.00,,,0.00,21.000000,,2013-01-28 18:52:00,
2013-01-28 11:02:00,32.0,28.0,-100.00,SSW,197,4.0,9.0,86,0.00,,,0.00,21.000000,,2013-01-28 19:02:00,
2013-01-28 11:12:00,32.0,28.0,-100.00,SSW,197,4.0,9.0,86,0.00,,,0.00,21.000000,,2013-01-28 19:12:00,
2013-01-28 11:22:00,32.0,28.0,-100.00,SSW,197,4.0,9.0,86,0.00,,,0.00,21.000000,,2013-01-28 19:22:00,
2013-01-28 11:31:00,33.0,28.0,-100.00,South,185,6.0,10.0,81,0.00,,,0.00,25.000000,,2013-01-28 19:31:00,
2013-01-28 11:52:00,33.0,28.0,-100.00,South,185,6.0,10.0,81,0.00,,,0.00,25.000000,,2013-01-28 19:52:00,
2013-01-28 12:02:00,33.0,28.0,-100.00,South,185,6.0,10.0,81,0.00,,,0.00,25.000000,,2013-01-28 20:02:00,
2013-01-28 12:11:00,33.0,28.0,-100.00,South,185,6.0,10.0,81,0.00,,,0.00,25.000000,,2013-01-28 20:11:00,
2013-01-28 12:21:00,33.0,28.0,-100.00,South,185,6.0,10.0,81,0.00,,,0.00,25.000000,,2013-01-28 20:21:00,
2013-01-28 12:31:00,34.0,28.0,-100.00,SW,223,6.0,12.0,80,0.00,,,0.00,53.000000,,2013-01-28 20:31:00,
2013-01-28 12:52:00,34.0,28.0,-100.00,SW,223,6.0,12.0,80,0.00,,,0.00,53.000000,,2013-01-28 20:52:00,
2013-01-28 13:02:00,34.0,28.0,-100.00,SW,223,6.0,12.0,80,0.00,,,0.00,53.000000,,2013-01-28 21:02:00,
2013-01-28 13:11:00,34.0,28.0,-100.00,SW,223,6.0,12.0,80,0.00,,,0.00,53.000000,,2013-01-28 21:11:00,
2013-01-28 13:22:00,34.0,28.0,-100.00,SW,223,6.0,12.0,80,0.00,,,0.00,53.000000,,2013-01-28 21:22:00,
2013-01-28 13:31:00,34.0,28.0,-100.00,SW,219,5.0,14.0,78,0.06,,,0.06,82.000000,,2013-01-28 21:31:00,
2013-01-28 13:53:00,34.0,28.0,-100.00,SW,219,5.0,14.0,78,0.06,,,0.06,82.000000,,2013-01-28 21:53:00,
2013-01-28 14:01:00,34.0,28.0,-100.00,SW,219,5.0,14.0,78,0.06,,,0.06,82.000000,,2013-01-28 22:01:00,
2013-01-28 14:11:00,34.0,28.0,-100.00,SW,219,5.0,14.0,78,0.06,,,0.06,82.000000,,2013-01-28 22:11:00,
2013-01-28 14:22:00,34.0,28.0,-100.00,SW,219,5.0,14.0,78,0.06,,,0.06,82.000000,,2013-01-28 22:22:00,
2013-01-28 14:31:00,32.0,28.0,-100.00,SSW,211,8.0,21.0,84,0.02,,,0.08,51.000000,,2013-01-28 22:31:00,
2013-01-28 14:52:00,32.0,28.0,-100.00,SSW,211,8.0,21.0,84,0.02,,,0.08,51.000000,,2013-01-28 22:52:00,
2013-01-28 15:02:00,32.0,28.0,-100.00,SSW,211,8.0,21.0,84,0.02,,,0.08,51.000000,,2013-01-28 23:02:00,
2013-01-28 15:11:00,32.0,28.0,-100.00,SSW,211,8.0,21.0,84,0.02,,,0.08,51.000000,,2013-01-28 23:11:00,
2013-01-28 15:22:00,32.0,28.0,-100.00,SSW,211,8.0,21.0,84,0.02,,,0.08,51.000000,,2013-01-28 23:22:00,
2013-01-28 15:31:00,31.0,28.0,-100.00,SSW,194,11.0,20.0,88,0.00,,,0.08,31.000000,,2013-01-28 23:31:00,
2013-01-28 15:53:00,31.0,28.0,-100.00,SSW,194,11.0,20.0,88,0.00,,,0.08,31.000000,,2013-01-28 23:53:00,
2013-01-28 16:02:00,31.0,28.0,-100.00,SSW,194,11.0,20.0,88,0.00,,,0.08,31.000000,,2013-01-29 00:02:00,
2013-01-28 16:12:00,31.0,28.0,-100.00,SSW,194,11.0,20.0,88,0.00,,,0.08,31.000000,,2013-01-29 00:12:00,
2013-01-28 16:21:00,31.0,28.0,-100.00,SSW,194,11.0,20.0,88,0.00,,,0.08,31.000000,,2013-01-29 00:21:00,
2013-01-28 16:31:00,31.0,29.0,-100.00,SSW,201,7.0,20.0,92,0.00,,,0.08,15.000000,,2013-01-29 00:31:00,
2013-01-28 16:52:00,31.0,29.0,-100.00,SSW,201,7.0,20.0,92,0.00,,,0.08,15.000000,,2013-01-29 00:52:00,
2013-01-28 17:02:00,31.0,29.0,-100.00,SSW,201,7.0,20.0,92,0.00,,,0.08,15.000000,,2013-01-29 01:02:00,
2013-01-28 17:11:00,31.0,29.0,-100.00,SSW,201,7.0,20.0,92,0.00,,,0.08,15.000000,,2013-01-29 01:11:00,
2013-01-28 17:22:00,31.0,29.0,-100.00,SSW,201,7.0,20.0,92,0.00,,,0.08,15.000000,,2013-01-29 01:22:00,
2013-01-28 17:31:00,32.0,30.0,-100.00,SW,236,7.0,17.0,92,0.00,,,0.08,3.000000,,2013-01-29 01:31:00,
2013-01-28 17:52:00,32.0,30.0,-100.00,SW,236,7.0,17.0,92,0.00,,,0.08,3.000000,,2013-01-29 01:52:00,
2013-01-28 18:02:00,32.0,30.0,-100.00,SW,236,7.0,17.0,92,0.00,,,0.08,3.000000,,2013-01-29 02:02:00,
2013-01-28 18:11:00,32.0,30.0,-100.00,SW,236,7.0,17.0,92,0.00,,,0.08,3.000000,,2013-01-29 02:11:00,
2013-01-28 18:21:00,32.0,30.0,-100.00,SW,236,7.0,17.0,92,0.00,,,0.08,3.000000,,2013-01-29 02:21:00,
2013-01-28 18:31:00,32.0,30.0,-100.00,SSW,203,7.0,19.0,93,0.00,,,0.08,0.000000,,2013-01-29 02:31:00,
2013-01-28 18:53:00,32.0,30.0,-100.00,SSW,203,7.0,19.0,93,0.00,,,0.08,0.000000,,2013-01-29 02:53:00,
2013-01-28 19:02:00,32.0,30.0,-100.00,SSW,203,7.0,19.0,93,0.00,,,0.08,0.000000,,2013-01-29 03:02:00,
2013-01-28 19:11:00,32.0,30.0,-100.00,SSW,203,7.0,19.0,93,0.00,,,0.08,0.000000,,2013-01-29 03:11:00,
2013-01-28 19:21:00,32.0,30.0,-100.00,SSW,203,7.0,19.0,93,0.00,,,0.08,0.000000,,2013-01-29 03:21:00,
2013-01-28 19:31:00,32.0,30.0,-100.00,SSW,203,7.0,19.0,94,0.00,,,0.08,0.000000,,2013-01-29 03:31:00,
2013-01-28 19:53:00,32.0,30.0,-100.00,SSW,203,7.0,19.0,94,0.00,,,0.08,0.000000,,2013-01-29 03:53:00,
2013-01-28 20:02:00,32.0,30.0,-100.00,SSW,203,7.0,19.0,94,0.00,,,0.08,0.000000,,2013-01-29 04:02:00,
2013-01-28 20:11:00,32.0,30.0,-100.00,SSW,203,7.0,19.0,94,0.00,,,0.08,0.000000,,2013-01-29 04:11:00,
2013-01-28 20:21:00,32.0,30.0,-100.00,SSW,203,7.0,19.0,94,0.00,,,0.08,0.000000,,2013-01-29 04:21:00,
2013-01-28 20:31:00,32.0,30.0,-100.00,SW,216,6.0,21.0,94,0.00,,,-99.99,0.000000,,2013-01-29 04:31:00,
2013-01-28 20:52:00,32.0,30.0,-100.00,SW,216,6.0,21.0,94,0.00,,,-99.99,0.000000,,2013-01-29 04:52:00,
2013-01-28 21:03:00,32.0,30.0,-100.00,SW,216,6.0,21.0,94,0.00,,,-99.99,0.000000,,2013-01-29 05:03:00,
2013-01-28 21:12:00,32.0,30.0,-100.00,SW,216,6.0,21.0,94,0.00,,,-99.99,0.000000,,2013-01-29 05:12:00,
2013-01-28 21:21:00,32.0,30.0,-100.00,SW,216,6.0,21.0,94,0.00,,,-99.99,0.000000,,2013-01-29 05:21:00,
2013-01-28 21:31:00,32.0,30.0,-100.00,SW,232,7.0,16.0,93,0.00,,,0.08,0.000000,,2013-01-29 05:31:00,
2013-01-28 21:52:00,32.0,30.0,-100.00,SW,232,7.0,16.0,93,0.00,,,0.08,0.000000,,2013-01-29 05:52:00,
2013-01-28 22:01:00,32.0,30.0,-100.00,SW,232,7.0,16.0,93,0.00,,,0.08,0.000000,,2013-01-29 06:01:00,
2013-01-28 22:11:00,32.0,30.0,-100.00,SW,232,7.0,16.0,93,0.00,,,0.08,0.000000,,2013-01-29 06:11:00,
2013-01-28 22:21:00,32.0,30.0,-100.00,SW,232,7.0,16.0,93,0.00,,,0.08,0.000000,,2013-01-29 06:21:00,
2013-01-28 22:31:00,31.0,30.0,-100.00,SW,215,6.0,21.0,95,0.00,,,0.08,0.000000,,2013-01-29 06:31:00,
2013-01-28 22:52:00,31.0,30.0,-100.00,SW,215,6.0,21.0,95,0.00,,,0.08,0.000000,,2013-01-29 06:52:00,
2013-01-28 23:01:00,31.0,30.0,-100.00,SW,215,6.0,21.0,95,0.00,,,0.08,0.000000,,2013-01-29 07:01:00,
2013-01-28 23:11:00,31.0,30.0,-100.00,SW,215,6.0,21.0,95,0.00,,,0.08,0.000000,,2013-01-29 07:11:00,
2013-01-28 23:21:00,31.0,30.0,-100.00,SW,215,6.0,21.0,95,0.00,,,0.08,0.000000,,2013-01-29 07:21:00,
2013-01-28 23:31:00,31.0,29.0,-100.00,SSW,207,8.0,26.0,94,0.00,,,0.08,0.000000,,2013-01-29 07:31:00,
2013-01-28 23:52:00,31.0,29.0,-100.00,SSW,207,8.0,26.0,94,0.00,,,0.08,0.000000,,2013-01-29 07:52:00,